sat.trackr.live / text

‹ back to catalog

STARLINK-38048

NORAD 69754 · 2026-150R

PAYLOAD ACTIVE UNKNOWN

§ Identity

Operator
Country
US
Launch date
2026-07-02
Launch site
AFWTR
Launch vehicle
Mass (kg)
RCS (m²)

Purposes: comms

External: N2YO · Heavens-Above · Gunter

§ Orbital elements

Epoch: 2026-09-20T00:29:33.151776Z

Period
93.91 min
Inclination
97.2834°
Eccentricity
0.0001360
Mean motion
15.33440008 rev/d
Perigee alt
464.6 km
Apogee alt
466.5 km
Semi-major
6,843.7 km
B*
4.6642e-4
RAAN
101.9752°
Arg perigee
83.7242°
Mean anomaly
276.4156°
Rev number
1,366

§ Raw data

STARLINK-380481 69754U 26150R   26263.02052259  .00015010  00000+0  46642-3 0  99902 69754  97.2834 101.9752 0001360  83.7242 276.4156 15.33440008 13662

JSON: /api/v1/satellites/69754 · /tle

For live sub-satellite position, see the globe view (requires WebGL).

§ Visibility from observer

Set your observer location to see the next 7 days of passes ≥ 10°. The values pass through the URL so the page stays shareable.

No JS? Fill the form by hand. The geolocation button needs JavaScript.